Flag for Finland Weather past 2 weeks in Vantaa, Finland

Now
75 °F

Passing clouds.


Feels Like: 78 °F
Forecast: 62 / 80 °F
Wind: 10 mph from North

Location: Helsinki-Vantaa

Current Time: Jul 22, 2014 at 11:05:44 AM

Latest Report: Jul 22, 2014 at 10:20 AM


Visibility: N/A

Pressure: 30.21 "Hg

Humidity: 50%

Dew point: 55 °F

Location of VantaaLocation

Historic Weather in Vantaa — Graph

°F

Vantaa temperature yesterday

Maximum temperature yesterday: 77 °F (at 10:50 AM)
Minimum temperature yesterday: 55 °F (at 5:20 AM)
Average temperature yesterday: 69 °F

Past Weeks' High & Low Weather Summary

 TemperatureHumidityPressure
High82 °F (Jul 9, 7:20 PM)100% (Jul 17, 5:50 AM)30.27 "Hg (Jul 17, 5:50 AM)
Low46 °F (Jul 11, 3:20 AM)34% (Jul 8, 3:20 PM)29.83 "Hg (Jul 13, 10:50 PM)
Average67 °F67%30.08 "Hg
* Reported Jul 7 9:20 AM — Jul 22 9:50 AM, Vantaa, Weather by CustomWeather, © 2014

Note: Actual official high and low records may vary slightly from our data, if they occured in-between our weather recording intervals... More about our weather records

Advertising

Vantaa weather history for previous 24 hours

 ConditionsComfort  
Time TempWeatherWind HumidityBarometerVisibility
9:50 AM
Jul 22
75 °FPassing clouds.8 mph50%30.24 "HgN/A
9:20 AM73 °FPassing clouds.7 mph61%30.24 "HgN/A
8:50 AM70 °FSunny.7 mph64%30.24 "Hg10 mi
8:20 AM68 °FSunny.6 mph69%30.21 "Hg10 mi
7:50 AM64 °FSunny.3 mph78%30.21 "Hg10 mi
7:20 AM63 °FSunny.3 mph77%30.21 "Hg10 mi
6:50 AM61 °FSunny.3 mph83%30.21 "Hg10 mi
6:20 AM59 °FSunny.3 mph82%30.21 "Hg10 mi
5:50 AM54 °FSunny.3 mph94%30.21 "Hg10 mi
5:20 AM54 °FClear.5 mph94%30.21 "Hg10 mi
4:50 AM54 °FClear.5 mph94%30.21 "Hg10 mi
4:20 AM54 °FFog.5 mph94%30.18 "HgN/A
3:50 AM55 °FClear.3 mph88%30.18 "Hg10 mi
3:20 AM54 °FClear.5 mph94%30.18 "Hg10 mi
2:50 AM55 °FClear.3 mph94%30.18 "Hg10 mi
2:20 AM55 °FClear.2 mph94%30.18 "Hg10 mi
1:50 AM55 °FClear.2 mph94%30.18 "Hg10 mi
1:20 AM57 °FClear.3 mph88%30.18 "Hg10 mi
12:20 AM59 °FClear.3 mph82%30.18 "Hg10 mi
11:50 PM
Jul 21
61 °FClear.2 mph77%30.15 "Hg10 mi
11:20 PM61 °FClear.1 mph83%30.15 "Hg10 mi
10:50 PM64 °FSunny.3 mph68%30.15 "Hg10 mi
10:20 PM68 °FSunny.2 mph56%30.15 "Hg10 mi
9:50 PM72 °FSunny.5 mph47%30.12 "Hg10 mi
9:20 PM73 °FSunny.6 mph44%30.12 "Hg10 mi
8:50 PM73 °FSunny.7 mph44%30.12 "Hg10 mi
8:20 PM75 °FSunny.7 mph41%30.12 "Hg10 mi
7:50 PM75 °FPassing clouds.7 mph41%30.12 "HgN/A
7:20 PM75 °FPassing clouds.5 mph41%30.12 "HgN/A
6:50 PM75 °FSunny.3 mph41%30.09 "Hg10 mi
6:20 PM75 °FPassing clouds.8 mph41%30.12 "HgN/A
5:50 PM77 °FSunny.6 mph39%30.09 "Hg10 mi
5:20 PM77 °FSunny.9 mph39%30.12 "Hg10 mi
4:50 PM77 °FPassing clouds.7 mph39%30.09 "HgN/A
4:20 PM77 °FPassing clouds.5 mph42%30.09 "HgN/A
3:50 PM77 °FPassing clouds.8 mph39%30.09 "HgN/A
3:20 PM77 °FPassing clouds.8 mph39%30.09 "HgN/A
2:50 PM77 °FPassing clouds.9 mph36%30.12 "HgN/A
2:20 PM77 °FPassing clouds.12 mph39%30.09 "HgN/A
1:50 PM77 °FPassing clouds.10 mph39%30.09 "HgN/A
1:20 PM77 °FSunny.12 mph42%30.09 "Hg10 mi
12:50 PM77 °FPassing clouds.9 mph39%30.09 "HgN/A
12:20 PM77 °FPassing clouds.13 mph39%30.09 "HgN/A
11:50 AM77 °FPassing clouds.12 mph44%30.09 "HgN/A
11:20 AM77 °FSunny.12 mph44%30.09 "Hg10 mi
Weather by CustomWeather, © 2014

See weather overviewHow to use our weather pages